Weather History for Carroll, IA

Change the Weather History Date:

Thursday, May 15, 2014

  Actual Average Record
Temperature  
Mean Temperature 42 °F -  
Max Temperature 50 °F 73 °F 95 °F (2001)
Min Temperature 35 °F 45 °F 28 °F (1959)
Degree Days  
Heating Degree Days 22    
Moisture  
Dew Point 29 °F    
Average Humidity 56    
Maximum Humidity 75    
Minimum Humidity 43    
Precipitation  
Precipitation 0.00 in - - ()
Sea Level Pressure  
Sea Level Pressure 30.13 in    
Wind  
Wind Speed 17 mph (NNW)    
Max Wind Speed 23 mph    
Max Gust Speed 32 mph    
Visibility 10 miles    
Events Rain    
Averages and records for this station are not official NWS values.
T = Trace of Precipitation, MM = Missing Value Source: NWS Daily Summary

Daily Weather History Graph

Daily Weather History Graph

Search for Another Location

Airport:

Trip Planner

Search our weather history database for the weather conditions in past years. The results will help you decide how hot, cold, wet, or windy it might be!

Date:

Astronomy

May. 15, 2014 Rise Set
Actual Time 5:58 AM CDT 8:33 PM CDT
Civil Twilight 5:26 AM CDT 9:05 PM CDT
Nautical Twilight 4:46 AM CDT 9:45 PM CDT
Astronomical Twilight 4:01 AM CDT 10:30 PM CDT
Moon 9:41 PM CDT (5/15) 6:46 AM CDT (5/15)
Length of Visible Light 15h 38m
Length of Day
14h 34m
Full, 99% of the Moon is Illuminated
May 15
Full
May 21
Last Quarter
May 28
New
Jun 5
First Quarter
Jun 12
Full

Hourly Weather History & Observations

Time (CDT) Temp. Windchill Dew Point Humidity Pressure Visibility Wind Dir Wind Speed Gust Speed Precip Events Conditions
12:15 AM 46.4 °F 39.2 °F 28.4 °F 50% 30.17 in 10.0 mi North 18.4 mph - N/A   Overcast
12:35 AM 46.4 °F 38.3 °F 28.4 °F 50% 30.17 in 10.0 mi North 23.0 mph 29.9 mph N/A   Overcast
12:55 AM 44.6 °F 35.9 °F 28.4 °F 53% 30.17 in 10.0 mi North 23.0 mph 32.2 mph N/A Rain Light Rain
1:15 AM 42.8 °F 34.0 °F 32.0 °F 66% 30.16 in 9.0 mi NNE 20.7 mph - N/A Rain Light Rain
1:35 AM 44.6 °F 37.4 °F 32.0 °F 61% 30.17 in 10.0 mi North 16.1 mph - N/A   Overcast
1:55 AM 44.6 °F 38.4 °F 30.2 °F 57% 30.17 in 10.0 mi North 12.7 mph - N/A   Overcast
2:15 AM 44.6 °F 38.8 °F 28.4 °F 53% 30.17 in 10.0 mi North 11.5 mph 17.3 mph N/A   Overcast
2:35 AM 42.8 °F 36.6 °F 30.2 °F 61% 30.16 in 10.0 mi North 11.5 mph - N/A   Overcast
2:55 AM 42.8 °F 35.8 °F 28.4 °F 57% 30.16 in 10.0 mi North 13.8 mph 20.7 mph N/A   Overcast
3:15 AM 41.0 °F 33.5 °F 28.4 °F 61% 30.15 in 10.0 mi North 13.8 mph - N/A   Overcast
3:35 AM 39.2 °F 31.2 °F 28.4 °F 65% 30.15 in 10.0 mi NNW 13.8 mph - N/A   Mostly Cloudy
3:55 AM 39.2 °F 32.0 °F 28.4 °F 65% 30.15 in 10.0 mi NNW 11.5 mph - N/A   Mostly Cloudy
4:15 AM 37.4 °F 29.8 °F 28.4 °F 70% 30.14 in 10.0 mi NNW 11.5 mph - N/A   Mostly Cloudy
4:35 AM 37.4 °F 29.3 °F 28.4 °F 70% 30.13 in 10.0 mi NNW 12.7 mph - N/A   Partly Cloudy
4:55 AM 37.4 °F 29.3 °F 28.4 °F 70% 30.13 in 10.0 mi NW 12.7 mph - N/A   Clear
5:15 AM 37.4 °F 28.9 °F 28.4 °F 70% 30.13 in 10.0 mi NNW 13.8 mph - N/A   Clear
5:35 AM 35.6 °F 26.6 °F 28.4 °F 75% 30.12 in 10.0 mi NW 13.8 mph - N/A   Clear
5:55 AM 35.6 °F 26.2 °F 28.4 °F 75% 30.12 in 10.0 mi NW 15.0 mph - N/A   Clear
6:15 AM 35.6 °F 25.9 °F 28.4 °F 75% 30.12 in 10.0 mi NW 16.1 mph - N/A   Clear
6:55 AM 37.4 °F 27.5 °F 30.2 °F 75% 30.12 in 10.0 mi NW 18.4 mph - N/A   Clear
7:15 AM 37.4 °F 27.5 °F 30.2 °F 75% 30.13 in 10.0 mi NNW 18.4 mph - N/A   Clear
7:35 AM 39.2 °F 29.8 °F 30.2 °F 70% 30.13 in 10.0 mi NNW 18.4 mph 25.3 mph N/A   Clear
7:55 AM 39.2 °F 29.0 °F 30.2 °F 70% 30.13 in 10.0 mi NNW 21.9 mph - N/A   Clear
8:15 AM 41.0 °F 31.9 °F 32.0 °F 70% 30.13 in 10.0 mi NNW 19.6 mph 27.6 mph N/A   Clear
8:35 AM 41.0 °F 31.6 °F 32.0 °F 70% 30.13 in 10.0 mi NNW 20.7 mph 27.6 mph N/A   Clear
8:55 AM 42.8 °F 34.3 °F 32.0 °F 66% 30.13 in 10.0 mi NNW 19.6 mph 26.5 mph N/A   Clear
9:15 AM 44.6 °F 36.1 °F 32.0 °F 61% 30.13 in 10.0 mi NNW 21.9 mph - N/A   Mostly Cloudy
9:35 AM 44.6 °F 36.6 °F 32.0 °F 61% 30.13 in 10.0 mi NNW 19.6 mph - N/A   Scattered Clouds
9:55 AM 44.6 °F 36.4 °F 32.0 °F 61% 30.13 in 10.0 mi North 20.7 mph - N/A   Scattered Clouds
10:15 AM 46.4 °F 39.2 °F 32.0 °F 57% 30.13 in 10.0 mi NNW 18.4 mph 25.3 mph N/A   Mostly Cloudy
10:35 AM 46.4 °F 38.7 °F 32.0 °F 57% 30.13 in 10.0 mi NNW 20.7 mph 27.6 mph N/A   Mostly Cloudy
10:55 AM 46.4 °F 39.0 °F 32.0 °F 57% 30.13 in 10.0 mi NNW 19.6 mph - N/A   Mostly Cloudy
11:15 AM 48.2 °F - 30.2 °F 50% 30.12 in 10.0 mi NNW 17.3 mph 27.6 mph N/A   Mostly Cloudy
11:35 AM 48.2 °F - 30.2 °F 50% 30.12 in 10.0 mi North 20.7 mph - N/A   Overcast
11:55 AM 48.2 °F - 30.2 °F 50% 30.12 in 10.0 mi NNW 21.9 mph 27.6 mph N/A   Overcast
12:35 PM 50.0 °F - 30.2 °F 47% 30.12 in 10.0 mi NNW 21.9 mph 28.8 mph N/A   Overcast
12:55 PM 48.2 °F - 28.4 °F 46% 30.12 in 10.0 mi NNW 18.4 mph 29.9 mph N/A   Overcast
1:15 PM 48.2 °F - 28.4 °F 46% 30.12 in 10.0 mi North 17.3 mph 26.5 mph N/A   Overcast
2:15 PM 48.2 °F - 30.2 °F 50% 30.12 in 10.0 mi NNW 20.7 mph 28.8 mph N/A   Overcast
2:35 PM 48.2 °F - 30.2 °F 50% 30.12 in 10.0 mi NNW 21.9 mph - N/A   Overcast
2:55 PM 48.2 °F - 28.4 °F 46% 30.13 in 10.0 mi NNW 20.7 mph - N/A   Mostly Cloudy
3:15 PM 48.2 °F - 28.4 °F 46% 30.12 in 10.0 mi North 21.9 mph - N/A   Mostly Cloudy
3:35 PM 48.2 °F - 28.4 °F 46% 30.12 in 10.0 mi NNW 17.3 mph 28.8 mph N/A   Mostly Cloudy
3:55 PM 50.0 °F - 28.4 °F 43% 30.12 in - NNW 19.6 mph 28.8 mph N/A   Mostly Cloudy
4:15 PM 50.0 °F - 28.4 °F 43% 30.11 in 10.0 mi North 19.6 mph 27.6 mph N/A   Mostly Cloudy
4:35 PM 50.0 °F - 28.4 °F 43% 30.11 in 10.0 mi North 17.3 mph 24.2 mph N/A   Mostly Cloudy
4:55 PM 50.0 °F - 28.4 °F 43% 30.11 in 10.0 mi North 18.4 mph - N/A   Mostly Cloudy
5:15 PM 48.2 °F - 28.4 °F 46% 30.11 in 10.0 mi North 15.0 mph 25.3 mph N/A   Mostly Cloudy
5:35 PM 48.2 °F - 26.6 °F 43% 30.12 in 10.0 mi NNW 17.3 mph - N/A   Overcast
5:55 PM 48.2 °F - 26.6 °F 43% 30.12 in 10.0 mi NNW 17.3 mph - N/A   Overcast
6:15 PM 48.2 °F - 26.6 °F 43% 30.12 in 10.0 mi NNW 17.3 mph - N/A   Overcast
6:35 PM 48.2 °F - 26.6 °F 43% 30.12 in 10.0 mi North 16.1 mph 21.9 mph N/A   Overcast
6:55 PM 48.2 °F - 26.6 °F 43% 30.12 in 10.0 mi North 16.1 mph 23.0 mph N/A   Overcast
7:15 PM 48.2 °F - 26.6 °F 43% 30.12 in 10.0 mi NNW 13.8 mph 20.7 mph N/A   Overcast
7:35 PM 46.4 °F 39.5 °F 26.6 °F 46% 30.13 in 10.0 mi NNW 17.3 mph - N/A   Overcast
7:55 PM 46.4 °F 40.1 °F 26.6 °F 46% 30.14 in 10.0 mi NNW 15.0 mph - N/A   Overcast
8:15 PM 46.4 °F 40.1 °F 26.6 °F 46% 30.14 in 10.0 mi NNW 15.0 mph - N/A   Overcast
8:35 PM 46.4 °F 40.4 °F 26.6 °F 46% 30.14 in 10.0 mi NNW 13.8 mph - N/A   Overcast
8:55 PM 44.6 °F 38.1 °F 28.4 °F 53% 30.14 in 10.0 mi North 13.8 mph - N/A   Overcast
9:15 PM 44.6 °F 38.4 °F 26.6 °F 49% 30.14 in 10.0 mi NNW 12.7 mph - N/A   Overcast
9:35 PM 44.6 °F 37.8 °F 28.4 °F 53% 30.15 in 10.0 mi North 15.0 mph - N/A   Overcast
9:55 PM 44.6 °F 38.8 °F 28.4 °F 53% 30.15 in 10.0 mi NNW 11.5 mph - N/A   Overcast
10:15 PM 44.6 °F 38.8 °F 28.4 °F 53% 30.15 in 10.0 mi NNW 11.5 mph - N/A   Overcast
10:35 PM 44.6 °F 39.2 °F 28.4 °F 53% 30.15 in 10.0 mi NNW 10.4 mph - N/A   Overcast
10:55 PM 42.8 °F 37.5 °F 28.4 °F 57% 30.15 in 10.0 mi NNW 9.2 mph - N/A   Overcast
11:15 PM 42.8 °F 38.6 °F 30.2 °F 61% 30.14 in 10.0 mi NNW 6.9 mph - N/A   Overcast
11:35 PM 42.8 °F 37.5 °F 30.2 °F 61% 30.14 in 10.0 mi NW 9.2 mph - N/A   Overcast
11:55 PM 42.8 °F 37.0 °F 30.2 °F 61% 30.13 in 10.0 mi NNW 10.4 mph - N/A   Overcast